Wetterdaten: Woche 09.10.23 - 15.10.23 (KW41)
Datum Zeit Temp. I. Temp. A. Feuchte I. Feuchte A. Luftdruck Regen Wind Richtung Sonnenschein Solar Taupunkt Windchill Windböen
09.10.2023 00:00 23,7 °C 11,1 °C 57 % 86 % 1023,0 hPa 0,0 l/m² 2,8 km/h (1 Bft) S 0,00 h 0 W/m² 8,9 °C 11,1 °C 4,5 km/h (1 Bft)
09.10.2023 01:00 23,6 °C 11,3 °C 57 % 87 % 1021,8 hPa 0,0 l/m² 4,4 km/h (1 Bft) O 0,00 h 0 W/m² 9,1 °C 11,0 °C 6,6 km/h (2 Bft)
09.10.2023 02:00 23,4 °C 11,5 °C 57 % 87 % 1020,8 hPa 0,0 l/m² 2,1 km/h (1 Bft) O 0,00 h 0 W/m² 9,4 °C 11,5 °C 3,7 km/h (1 Bft)
09.10.2023 03:00 23,3 °C 11,7 °C 57 % 88 % 1019,8 hPa 0,0 l/m² 1,3 km/h (1 Bft) O 0,00 h 0 W/m² 9,7 °C 11,7 °C 2,5 km/h (1 Bft)
09.10.2023 04:00 23,2 °C 11,6 °C 57 % 88 % 1018,7 hPa 0,0 l/m² 2,6 km/h (1 Bft) SO 0,00 h 0 W/m² 9,7 °C 11,6 °C 4,6 km/h (1 Bft)
09.10.2023 05:00 23,2 °C 11,5 °C 57 % 89 % 1018,0 hPa 0,0 l/m² 2,7 km/h (1 Bft) SO 0,00 h 0 W/m² 9,8 °C 11,5 °C 4,4 km/h (1 Bft)
09.10.2023 06:00 23,2 °C 11,4 °C 57 % 91 % 1017,1 hPa 0,0 l/m² 1,5 km/h (1 Bft) SO 0,00 h 0 W/m² 10,0 °C 11,4 °C 3,1 km/h (1 Bft)
09.10.2023 07:00 23,1 °C 11,8 °C 56 % 91 % 1016,7 hPa 0,0 l/m² 2,2 km/h (1 Bft) SO 0,00 h 5 W/m² 10,4 °C 11,8 °C 3,5 km/h (1 Bft)
09.10.2023 08:00 22,9 °C 12,4 °C 57 % 91 % 1017,0 hPa 0,4 l/m² 7,1 km/h (2 Bft) W-SW 0,00 h 17 W/m² 10,9 °C 11,2 °C 10,5 km/h (2 Bft)
09.10.2023 09:00 22,9 °C 13,1 °C 57 % 93 % 1017,5 hPa 1,0 l/m² 7,2 km/h (2 Bft) SW 0,45 h 47 W/m² 11,9 °C 12,5 °C 10,1 km/h (2 Bft)
09.10.2023 10:00 22,8 °C 13,3 °C 57 % 93 % 1017,6 hPa 0,4 l/m² 9,5 km/h (2 Bft) SW 0,78 h 69 W/m² 12,2 °C 11,6 °C 12,0 km/h (2 Bft)
09.10.2023 11:00 22,8 °C 13,7 °C 57 % 93 % 1017,5 hPa 0,2 l/m² 8,0 km/h (2 Bft) S-SW 0,85 h 120 W/m² 12,6 °C 12,7 °C 11,0 km/h (2 Bft)
09.10.2023 12:00 22,8 °C 14,8 °C 57 % 92 % 1016,9 hPa 0,0 l/m² 4,3 km/h (1 Bft) SW 0,77 h 74 W/m² 13,5 °C 14,2 °C 5,8 km/h (2 Bft)
09.10.2023 13:00 22,7 °C 15,1 °C 57 % 93 % 1017,1 hPa 4,0 l/m² 0,0 km/h (0 Bft) SW 0,10 h 38 W/m² 14,0 °C 15,1 °C 0,0 km/h (0 Bft)
09.10.2023 14:00 22,7 °C 15,0 °C 57 % 95 % 1017,1 hPa 1,2 l/m² 0,4 km/h (0 Bft) SW 0,20 h 40 W/m² 14,1 °C 15,0 °C 0,8 km/h (0 Bft)
09.10.2023 15:00 22,7 °C 14,9 °C 57 % 95 % 1016,9 hPa 1,0 l/m² 0,1 km/h (0 Bft) SW 0,02 h 38 W/m² 14,1 °C 14,9 °C 0,3 km/h (0 Bft)
09.10.2023 16:00 22,6 °C 15,2 °C 58 % 96 % 1016,9 hPa 0,4 l/m² 3,7 km/h (1 Bft) W-SW 0,00 h 19 W/m² 14,6 °C 14,9 °C 6,2 km/h (2 Bft)
09.10.2023 17:00 22,5 °C 15,4 °C 58 % 96 % 1017,0 hPa 0,0 l/m² 5,5 km/h (2 Bft) W-SW 0,00 h 10 W/m² 14,7 °C 15,1 °C 9,0 km/h (2 Bft)
09.10.2023 18:00 22,5 °C 15,5 °C 59 % 95 % 1017,3 hPa 0,0 l/m² 4,5 km/h (1 Bft) W-SW 0,00 h 5 W/m² 14,7 °C 15,5 °C 7,4 km/h (2 Bft)
09.10.2023 19:00 22,6 °C 15,5 °C 60 % 95 % 1017,6 hPa 0,0 l/m² 1,7 km/h (1 Bft) W-SW 0,00 h 0 W/m² 14,7 °C 15,5 °C 3,4 km/h (1 Bft)
09.10.2023 20:00 22,7 °C 15,3 °C 62 % 95 % 1017,9 hPa 0,0 l/m² 1,1 km/h (1 Bft) W-SW 0,00 h 0 W/m² 14,5 °C 15,3 °C 3,1 km/h (1 Bft)
09.10.2023 21:00 22,8 °C 15,5 °C 62 % 95 % 1018,1 hPa 0,4 l/m² 1,2 km/h (1 Bft) W-SW 0,00 h 0 W/m² 14,7 °C 15,5 °C 3,0 km/h (1 Bft)
09.10.2023 22:00 22,5 °C 15,6 °C 63 % 95 % 1018,4 hPa 0,0 l/m² 1,3 km/h (1 Bft) W-NW 0,00 h 0 W/m² 14,8 °C 15,6 °C 3,9 km/h (1 Bft)
09.10.2023 23:00 22,4 °C 15,8 °C 64 % 94 % 1018,7 hPa 0,0 l/m² 2,4 km/h (1 Bft) W-NW 0,00 h 0 W/m² 14,8 °C 15,8 °C 6,9 km/h (2 Bft)
10.10.2023 00:00 22,3 °C 15,4 °C 64 % 93 % 1019,0 hPa 0,0 l/m² 2,1 km/h (1 Bft) W 0,00 h 0 W/m² 14,3 °C 15,4 °C 5,7 km/h (2 Bft)
10.10.2023 01:00 22,3 °C 14,7 °C 64 % 94 % 1019,2 hPa 0,0 l/m² 0,3 km/h (0 Bft) W 0,00 h 0 W/m² 13,7 °C 14,7 °C 1,0 km/h (0 Bft)
10.10.2023 02:00 22,2 °C 14,8 °C 65 % 94 % 1019,3 hPa 0,0 l/m² 0,8 km/h (0 Bft) W 0,00 h 0 W/m² 13,9 °C 14,8 °C 2,8 km/h (1 Bft)
10.10.2023 03:00 22,2 °C 14,9 °C 65 % 94 % 1019,1 hPa 0,0 l/m² 0,5 km/h (0 Bft) W 0,00 h 0 W/m² 13,9 °C 14,9 °C 2,2 km/h (1 Bft)
10.10.2023 04:00 22,1 °C 15,0 °C 65 % 93 % 1019,0 hPa 0,0 l/m² 2,8 km/h (1 Bft) W 0,00 h 0 W/m² 13,8 °C 15,0 °C 8,3 km/h (2 Bft)
10.10.2023 05:00 22,1 °C 14,9 °C 64 % 91 % 1019,2 hPa 0,0 l/m² 4,8 km/h (1 Bft) W-NW 0,00 h 0 W/m² 13,4 °C 14,8 °C 11,2 km/h (2 Bft)
10.10.2023 06:00 22,1 °C 14,6 °C 64 % 92 % 1019,3 hPa 0,0 l/m² 3,5 km/h (1 Bft) W 0,00 h 0 W/m² 13,3 °C 14,6 °C 7,9 km/h (2 Bft)
10.10.2023 07:00 22,0 °C 14,2 °C 63 % 93 % 1019,3 hPa 0,0 l/m² 1,4 km/h (1 Bft) W-SW 0,00 h 13 W/m² 13,1 °C 14,2 °C 3,3 km/h (1 Bft)
10.10.2023 08:00 22,0 °C 14,3 °C 62 % 94 % 1019,6 hPa 0,0 l/m² 0,0 km/h (0 Bft) W-SW 0,23 h 41 W/m² 13,4 °C 14,3 °C 0,2 km/h (0 Bft)
10.10.2023 09:00 22,0 °C 15,3 °C 62 % 93 % 1019,9 hPa 0,0 l/m² 0,1 km/h (0 Bft) W-SW 0,83 h 114 W/m² 14,2 °C 15,3 °C 0,3 km/h (0 Bft)
10.10.2023 10:00 22,2 °C 16,3 °C 62 % 91 % 1019,9 hPa 0,0 l/m² 1,8 km/h (1 Bft) S-SW 1,00 h 220 W/m² 14,9 °C 16,3 °C 3,2 km/h (1 Bft)
10.10.2023 11:00 22,4 °C 17,5 °C 61 % 87 % 1019,9 hPa 0,0 l/m² 1,8 km/h (1 Bft) W 1,00 h 230 W/m² 15,4 °C 17,5 °C 3,6 km/h (1 Bft)
10.10.2023 12:00 22,5 °C 18,5 °C 61 % 84 % 1019,7 hPa 0,0 l/m² 3,6 km/h (1 Bft) W 1,02 h 322 W/m² 15,7 °C 18,4 °C 5,9 km/h (2 Bft)
10.10.2023 13:00 22,7 °C 19,3 °C 60 % 81 % 1019,1 hPa 0,0 l/m² 6,4 km/h (2 Bft) S-SW 1,00 h 371 W/m² 16,0 °C 19,0 °C 8,7 km/h (2 Bft)
10.10.2023 14:00 22,9 °C 20,1 °C 60 % 80 % 1018,6 hPa 0,0 l/m² 8,3 km/h (2 Bft) S-SW 1,00 h 436 W/m² 16,6 °C 19,3 °C 11,2 km/h (2 Bft)
10.10.2023 15:00 22,9 °C 20,2 °C 60 % 82 % 1018,3 hPa 0,0 l/m² 7,6 km/h (2 Bft) S-SW 1,00 h 276 W/m² 16,9 °C 19,6 °C 10,3 km/h (2 Bft)
10.10.2023 16:00 22,7 °C 19,5 °C 60 % 84 % 1017,9 hPa 0,0 l/m² 3,5 km/h (1 Bft) S-SW 0,80 h 70 W/m² 16,7 °C 19,5 °C 5,0 km/h (1 Bft)
10.10.2023 17:00 22,6 °C 19,5 °C 61 % 84 % 1017,3 hPa 0,0 l/m² 3,2 km/h (1 Bft) SO 0,68 h 78 W/m² 16,8 °C 19,5 °C 5,3 km/h (1 Bft)
10.10.2023 18:00 22,6 °C 18,7 °C 62 % 86 % 1017,2 hPa 0,0 l/m² 1,3 km/h (1 Bft) SO 0,00 h 19 W/m² 16,3 °C 18,7 °C 2,8 km/h (1 Bft)
10.10.2023 19:00 22,7 °C 16,4 °C 64 % 91 % 1017,3 hPa 0,0 l/m² 0,1 km/h (0 Bft) SO 0,00 h 0 W/m² 15,0 °C 16,4 °C 0,5 km/h (0 Bft)
10.10.2023 20:00 22,8 °C 15,9 °C 64 % 94 % 1017,1 hPa 0,0 l/m² 0,1 km/h (0 Bft) SO 0,00 h 0 W/m² 14,8 °C 15,9 °C 0,3 km/h (0 Bft)
10.10.2023 21:00 22,8 °C 16,0 °C 64 % 91 % 1016,7 hPa 0,0 l/m² 2,3 km/h (1 Bft) SO 0,00 h 0 W/m² 14,6 °C 16,0 °C 3,9 km/h (1 Bft)
10.10.2023 22:00 22,6 °C 17,3 °C 63 % 79 % 1016,5 hPa 0,0 l/m² 4,3 km/h (1 Bft) SW 0,00 h 0 W/m² 13,6 °C 17,2 °C 7,2 km/h (2 Bft)
10.10.2023 23:00 22,4 °C 16,9 °C 63 % 79 % 1016,2 hPa 0,0 l/m² 9,4 km/h (2 Bft) SW 0,00 h 0 W/m² 13,3 °C 15,5 °C 13,9 km/h (3 Bft)
11.10.2023 00:00 22,3 °C 16,4 °C 64 % 79 % 1015,8 hPa 0,0 l/m² 2,9 km/h (1 Bft) S-SW 0,00 h 0 W/m² 12,9 °C 16,3 °C 5,3 km/h (1 Bft)
11.10.2023 01:00 22,2 °C 15,9 °C 64 % 81 % 1015,7 hPa 0,0 l/m² 3,9 km/h (1 Bft) SW 0,00 h 0 W/m² 12,6 °C 15,7 °C 6,2 km/h (2 Bft)
11.10.2023 02:00 22,2 °C 15,5 °C 64 % 82 % 1015,5 hPa 0,0 l/m² 3,0 km/h (1 Bft) S-SW 0,00 h 0 W/m² 12,4 °C 15,3 °C 4,9 km/h (1 Bft)
11.10.2023 03:00 22,1 °C 15,9 °C 64 % 80 % 1014,8 hPa 0,0 l/m² 7,3 km/h (2 Bft) S-SW 0,00 h 0 W/m² 12,5 °C 15,1 °C 10,9 km/h (2 Bft)
11.10.2023 04:00 22,1 °C 15,8 °C 64 % 81 % 1014,5 hPa 0,0 l/m² 12,9 km/h (3 Bft) S-SW 0,00 h 0 W/m² 12,5 °C 12,9 °C 17,6 km/h (3 Bft)
11.10.2023 05:00 22,1 °C 15,8 °C 63 % 80 % 1014,1 hPa 0,0 l/m² 10,9 km/h (2 Bft) S-SW 0,00 h 0 W/m² 12,5 °C 13,7 °C 14,2 km/h (3 Bft)
11.10.2023 06:00 22,1 °C 15,5 °C 63 % 82 % 1014,1 hPa 0,0 l/m² 3,0 km/h (1 Bft) S-SW 0,00 h 0 W/m² 12,4 °C 15,5 °C 4,7 km/h (1 Bft)
11.10.2023 07:00 22,0 °C 15,2 °C 63 % 83 % 1014,0 hPa 0,0 l/m² 5,7 km/h (2 Bft) SW 0,00 h 16 W/m² 12,2 °C 15,1 °C 7,3 km/h (2 Bft)
11.10.2023 08:00 21,9 °C 16,2 °C 63 % 80 % 1014,1 hPa 0,0 l/m² 6,7 km/h (2 Bft) SW 0,75 h 98 W/m² 12,7 °C 15,6 °C 8,7 km/h (2 Bft)
11.10.2023 09:00 22,1 °C 18,1 °C 62 % 76 % 1014,1 hPa 0,0 l/m² 6,4 km/h (2 Bft) SW 1,00 h 237 W/m² 13,8 °C 17,4 °C 8,8 km/h (2 Bft)
11.10.2023 10:00 22,6 °C 19,5 °C 61 % 70 % 1014,0 hPa 0,0 l/m² 19,4 km/h (3 Bft) S-SW 1,00 h 414 W/m² 13,9 °C 15,7 °C 25,1 km/h (4 Bft)
11.10.2023 11:00 23,1 °C 20,5 °C 60 % 69 % 1013,8 hPa 0,0 l/m² 18,1 km/h (3 Bft) S-SW 1,00 h 486 W/m² 14,6 °C 17,3 °C 24,1 km/h (4 Bft)
11.10.2023 12:00 23,5 °C 22,2 °C 59 % 64 % 1013,7 hPa 0,0 l/m² 18,3 km/h (3 Bft) SW 1,00 h 541 W/m² 14,9 °C 19,4 °C 25,4 km/h (4 Bft)
11.10.2023 13:00 23,7 °C 23,2 °C 59 % 58 % 1013,0 hPa 0,0 l/m² 21,6 km/h (4 Bft) SW 1,00 h 494 W/m² 14,4 °C 20,3 °C 29,8 km/h (5 Bft)
11.10.2023 14:00 23,5 °C 22,7 °C 59 % 58 % 1012,3 hPa 0,0 l/m² 20,7 km/h (4 Bft) SW 1,00 h 232 W/m² 14,0 °C 19,6 °C 28,4 km/h (5 Bft)
11.10.2023 15:00 23,2 °C 23,1 °C 60 % 56 % 1012,2 hPa 0,0 l/m² 21,0 km/h (4 Bft) SW 1,00 h 247 W/m² 13,8 °C 20,1 °C 28,5 km/h (5 Bft)
11.10.2023 16:00 22,9 °C 22,7 °C 60 % 57 % 1011,7 hPa 0,0 l/m² 22,0 km/h (4 Bft) SW 1,00 h 135 W/m² 13,7 °C 19,4 °C 28,7 km/h (5 Bft)
11.10.2023 17:00 22,8 °C 22,6 °C 55 % 57 % 1011,5 hPa 0,0 l/m² 18,7 km/h (3 Bft) SW 0,63 h 79 W/m² 13,7 °C 19,8 °C 24,5 km/h (4 Bft)
11.10.2023 18:00 22,7 °C 21,5 °C 56 % 60 % 1011,8 hPa 0,0 l/m² 16,5 km/h (3 Bft) S-SW 0,00 h 13 W/m² 13,4 °C 18,8 °C 21,0 km/h (4 Bft)
11.10.2023 19:00 22,8 °C 20,3 °C 58 % 64 % 1011,8 hPa 0,0 l/m² 11,0 km/h (2 Bft) SW 0,00 h 0 W/m² 13,2 °C 18,7 °C 14,5 km/h (3 Bft)
11.10.2023 20:00 22,9 °C 20,3 °C 59 % 63 % 1011,8 hPa 0,0 l/m² 13,6 km/h (3 Bft) S-SW 0,00 h 0 W/m² 13,0 °C 18,0 °C 17,8 km/h (3 Bft)
11.10.2023 21:00 22,9 °C 19,8 °C 59 % 64 % 1011,7 hPa 0,0 l/m² 15,5 km/h (3 Bft) S-SW 0,00 h 0 W/m² 12,8 °C 16,9 °C 19,4 km/h (3 Bft)
11.10.2023 22:00 22,8 °C 19,2 °C 59 % 67 % 1011,5 hPa 0,0 l/m² 13,8 km/h (3 Bft) S-SW 0,00 h 0 W/m² 13,0 °C 16,7 °C 17,5 km/h (3 Bft)
11.10.2023 23:00 22,6 °C 18,4 °C 60 % 72 % 1011,5 hPa 0,0 l/m² 7,0 km/h (2 Bft) SW 0,00 h 0 W/m² 13,2 °C 17,8 °C 9,2 km/h (2 Bft)
12.10.2023 00:00 22,6 °C 17,6 °C 60 % 75 % 1011,0 hPa 0,0 l/m² 5,1 km/h (1 Bft) SW 0,00 h 0 W/m² 13,2 °C 17,5 °C 7,3 km/h (2 Bft)
12.10.2023 01:00 22,4 °C 17,3 °C 60 % 77 % 1010,9 hPa 0,0 l/m² 2,8 km/h (1 Bft) SW 0,00 h 0 W/m² 13,1 °C 17,2 °C 4,7 km/h (1 Bft)
12.10.2023 02:00 22,4 °C 17,8 °C 61 % 75 % 1010,8 hPa 0,0 l/m² 7,0 km/h (2 Bft) SW 0,00 h 0 W/m² 13,3 °C 17,3 °C 9,8 km/h (2 Bft)
12.10.2023 03:00 22,4 °C 17,8 °C 62 % 76 % 1010,5 hPa 0,0 l/m² 7,1 km/h (2 Bft) W-SW 0,00 h 0 W/m² 13,5 °C 17,3 °C 10,0 km/h (2 Bft)
12.10.2023 04:00 22,3 °C 18,6 °C 62 % 73 % 1010,5 hPa 0,0 l/m² 11,9 km/h (2 Bft) SW 0,00 h 0 W/m² 13,7 °C 16,5 °C 17,2 km/h (3 Bft)
12.10.2023 05:00 22,4 °C 17,9 °C 62 % 76 % 1010,6 hPa 0,0 l/m² 5,1 km/h (1 Bft) SW 0,00 h 0 W/m² 13,6 °C 17,7 °C 7,4 km/h (2 Bft)
12.10.2023 06:00 22,4 °C 17,8 °C 62 % 78 % 1011,0 hPa 0,0 l/m² 8,1 km/h (2 Bft) W-SW 0,00 h 0 W/m² 13,9 °C 16,9 °C 11,6 km/h (2 Bft)
12.10.2023 07:00 22,3 °C 16,8 °C 62 % 84 % 1012,0 hPa 0,6 l/m² 8,6 km/h (2 Bft) SW 0,00 h 9 W/m² 14,1 °C 15,7 °C 12,1 km/h (2 Bft)
12.10.2023 08:00 22,3 °C 15,8 °C 62 % 90 % 1012,9 hPa 0,6 l/m² 4,8 km/h (1 Bft) W-SW 0,00 h 13 W/m² 14,2 °C 15,7 °C 6,7 km/h (2 Bft)
12.10.2023 09:00 22,2 °C 15,7 °C 62 % 92 % 1013,1 hPa 0,2 l/m² 5,1 km/h (1 Bft) S-SW 0,00 h 27 W/m² 14,4 °C 15,7 °C 6,9 km/h (2 Bft)
12.10.2023 10:00 22,2 °C 16,2 °C 62 % 91 % 1013,6 hPa 0,4 l/m² 7,9 km/h (2 Bft) SW 0,68 h 65 W/m² 14,7 °C 15,0 °C 11,2 km/h (2 Bft)
12.10.2023 11:00 22,2 °C 16,2 °C 61 % 90 % 1013,9 hPa 0,2 l/m² 9,3 km/h (2 Bft) SW 0,07 h 39 W/m² 14,6 °C 14,8 °C 13,6 km/h (3 Bft)
12.10.2023 12:00 22,2 °C 16,4 °C 61 % 90 % 1014,2 hPa 0,0 l/m² 9,2 km/h (2 Bft) SW 0,58 h 55 W/m² 14,7 °C 15,0 °C 12,2 km/h (2 Bft)
12.10.2023 13:00 22,2 °C 16,9 °C 61 % 88 % 1014,3 hPa 0,0 l/m² 15,4 km/h (3 Bft) SW 1,00 h 85 W/m² 14,8 °C 13,4 °C 20,7 km/h (4 Bft)
12.10.2023 14:00 22,2 °C 17,0 °C 61 % 87 % 1014,4 hPa 0,0 l/m² 15,6 km/h (3 Bft) SW 1,00 h 137 W/m² 14,9 °C 13,5 °C 21,1 km/h (4 Bft)
12.10.2023 15:00 22,2 °C 17,4 °C 61 % 86 % 1014,2 hPa 0,0 l/m² 13,4 km/h (3 Bft) SW 1,00 h 116 W/m² 15,0 °C 14,6 °C 17,9 km/h (3 Bft)
12.10.2023 16:00 22,3 °C 17,7 °C 62 % 85 % 1013,8 hPa 0,0 l/m² 13,8 km/h (3 Bft) SW 1,00 h 118 W/m² 15,2 °C 14,9 °C 17,9 km/h (3 Bft)
12.10.2023 17:00 22,2 °C 17,2 °C 62 % 86 % 1013,7 hPa 0,0 l/m² 11,4 km/h (2 Bft) SW 0,22 h 33 W/m² 14,8 °C 15,2 °C 14,7 km/h (3 Bft)
12.10.2023 18:00 22,1 °C 16,3 °C 62 % 89 % 1013,8 hPa 0,0 l/m² 4,4 km/h (1 Bft) SW 0,00 h 7 W/m² 14,4 °C 16,1 °C 6,2 km/h (2 Bft)
12.10.2023 19:00 22,2 °C 15,7 °C 64 % 91 % 1014,1 hPa 0,0 l/m² 3,1 km/h (1 Bft) S-SW 0,00 h 0 W/m² 14,2 °C 15,7 °C 4,1 km/h (1 Bft)
12.10.2023 20:00 22,3 °C 15,7 °C 65 % 92 % 1014,4 hPa 1,0 l/m² 1,6 km/h (1 Bft) S-SW 0,00 h 0 W/m² 14,3 °C 15,7 °C 2,4 km/h (1 Bft)
12.10.2023 21:00 22,3 °C 15,1 °C 65 % 94 % 1014,4 hPa 0,2 l/m² 0,8 km/h (0 Bft) S-SO 0,00 h 0 W/m² 14,1 °C 15,1 °C 1,4 km/h (1 Bft)
12.10.2023 22:00 22,2 °C 15,1 °C 65 % 94 % 1014,5 hPa 0,0 l/m² 3,4 km/h (1 Bft) S-SW 0,00 h 0 W/m² 14,2 °C 15,1 °C 5,0 km/h (1 Bft)
12.10.2023 23:00 22,1 °C 14,9 °C 65 % 94 % 1014,4 hPa 0,0 l/m² 2,4 km/h (1 Bft) S-SW 0,00 h 0 W/m² 13,9 °C 14,9 °C 4,0 km/h (1 Bft)
13.10.2023 00:00 21,9 °C 14,4 °C 65 % 94 % 1014,2 hPa 0,0 l/m² 0,0 km/h (0 Bft) S-SW 0,00 h 0 W/m² 13,4 °C 14,4 °C 0,0 km/h (0 Bft)
13.10.2023 01:00 21,8 °C 14,0 °C 65 % 95 % 1014,3 hPa 0,0 l/m² 2,3 km/h (1 Bft) S-SO 0,00 h 0 W/m² 13,2 °C 14,0 °C 4,4 km/h (1 Bft)
13.10.2023 02:00 21,8 °C 14,5 °C 65 % 95 % 1014,1 hPa 0,0 l/m² 2,6 km/h (1 Bft) S 0,00 h 0 W/m² 13,6 °C 14,5 °C 4,5 km/h (1 Bft)
13.10.2023 03:00 21,8 °C 14,5 °C 65 % 94 % 1014,0 hPa 0,0 l/m² 6,7 km/h (2 Bft) S 0,00 h 0 W/m² 13,5 °C 13,9 °C 9,9 km/h (2 Bft)
13.10.2023 04:00 21,7 °C 14,0 °C 65 % 94 % 1013,6 hPa 0,2 l/m² 4,0 km/h (1 Bft) O-SO 0,00 h 0 W/m² 13,0 °C 13,5 °C 6,6 km/h (2 Bft)
13.10.2023 05:00 21,7 °C 14,3 °C 65 % 94 % 1013,0 hPa 0,0 l/m² 9,8 km/h (2 Bft) S 0,00 h 0 W/m² 13,4 °C 12,5 °C 13,3 km/h (3 Bft)
13.10.2023 06:00 21,7 °C 14,7 °C 65 % 94 % 1012,7 hPa 0,0 l/m² 6,1 km/h (2 Bft) S 0,00 h 0 W/m² 13,7 °C 14,4 °C 9,0 km/h (2 Bft)
13.10.2023 07:00 21,7 °C 14,9 °C 65 % 94 % 1012,4 hPa 0,0 l/m² 3,1 km/h (1 Bft) O-SO 0,00 h 8 W/m² 13,9 °C 14,9 °C 5,2 km/h (1 Bft)
13.10.2023 08:00 21,8 °C 15,6 °C 64 % 93 % 1012,2 hPa 0,0 l/m² 6,4 km/h (2 Bft) S-SO 0,17 h 29 W/m² 14,5 °C 15,3 °C 9,8 km/h (2 Bft)
13.10.2023 09:00 21,7 °C 16,4 °C 63 % 91 % 1011,8 hPa 0,0 l/m² 6,5 km/h (2 Bft) S-SO 0,25 h 44 W/m² 14,9 °C 16,0 °C 10,3 km/h (2 Bft)
13.10.2023 10:00 21,7 °C 17,3 °C 65 % 90 % 1011,3 hPa 0,0 l/m² 9,6 km/h (2 Bft) S-SO 0,52 h 50 W/m² 15,7 °C 15,9 °C 14,0 km/h (3 Bft)
13.10.2023 11:00 21,7 °C 18,6 °C 64 % 88 % 1010,9 hPa 0,0 l/m² 13,2 km/h (3 Bft) S 0,87 h 70 W/m² 16,6 °C 16,1 °C 18,8 km/h (3 Bft)
13.10.2023 12:00 21,8 °C 19,6 °C 65 % 87 % 1010,3 hPa 0,0 l/m² 12,5 km/h (2 Bft) S 1,00 h 112 W/m² 17,4 °C 17,5 °C 16,8 km/h (3 Bft)
13.10.2023 13:00 21,8 °C 20,4 °C 65 % 85 % 1009,6 hPa 0,0 l/m² 5,7 km/h (2 Bft) S-SO 1,00 h 113 W/m² 17,8 °C 20,2 °C 8,5 km/h (2 Bft)
13.10.2023 14:00 21,8 °C 21,5 °C 64 % 80 % 1008,4 hPa 0,0 l/m² 7,5 km/h (2 Bft) SO 1,00 h 204 W/m² 17,8 °C 20,9 °C 11,2 km/h (2 Bft)
13.10.2023 15:00 21,9 °C 22,5 °C 65 % 71 % 1007,8 hPa 0,0 l/m² 11,9 km/h (2 Bft) S-SW 1,00 h 162 W/m² 17,0 °C 21,0 °C 16,6 km/h (3 Bft)
13.10.2023 16:00 21,9 °C 22,2 °C 65 % 68 % 1007,1 hPa 0,0 l/m² 13,5 km/h (3 Bft) S-SW 1,00 h 124 W/m² 16,0 °C 20,4 °C 18,7 km/h (3 Bft)
13.10.2023 17:00 21,8 °C 22,3 °C 65 % 66 % 1006,5 hPa 0,0 l/m² 19,4 km/h (3 Bft) S-SW 0,52 h 55 W/m² 15,6 °C 19,4 °C 24,6 km/h (4 Bft)
13.10.2023 18:00 21,8 °C 21,8 °C 65 % 66 % 1006,3 hPa 0,0 l/m² 13,1 km/h (3 Bft) S-SW 0,00 h 8 W/m² 15,2 °C 19,9 °C 18,0 km/h (3 Bft)
13.10.2023 19:00 21,8 °C 21,5 °C 65 % 65 % 1006,1 hPa 0,0 l/m² 14,1 km/h (3 Bft) S 0,00 h 0 W/m² 14,6 °C 19,3 °C 19,1 km/h (3 Bft)
13.10.2023 20:00 21,7 °C 20,3 °C 66 % 69 % 1005,7 hPa 0,0 l/m² 11,6 km/h (2 Bft) S-SO 0,00 h 0 W/m² 14,4 °C 18,5 °C 15,2 km/h (3 Bft)
13.10.2023 21:00 21,7 °C 19,9 °C 66 % 69 % 1005,1 hPa 0,0 l/m² 7,5 km/h (2 Bft) S-SO 0,00 h 0 W/m² 14,1 °C 19,4 °C 10,0 km/h (2 Bft)
13.10.2023 22:00 21,7 °C 18,8 °C 66 % 73 % 1004,4 hPa 0,0 l/m² 2,4 km/h (1 Bft) S-SO 0,00 h 0 W/m² 13,9 °C 18,8 °C 3,8 km/h (1 Bft)
13.10.2023 23:00 21,7 °C 19,1 °C 66 % 71 % 1003,6 hPa 0,0 l/m² 3,1 km/h (1 Bft) S 0,00 h 0 W/m² 13,8 °C 19,1 °C 5,1 km/h (1 Bft)
14.10.2023 00:00 21,7 °C 19,1 °C 65 % 69 % 1002,9 hPa 0,0 l/m² 4,6 km/h (1 Bft) S-SW 0,00 h 0 W/m² 13,3 °C 19,0 °C 6,6 km/h (2 Bft)
14.10.2023 01:00 21,7 °C 20,0 °C 65 % 65 % 1002,8 hPa 0,0 l/m² 9,8 km/h (2 Bft) S 0,00 h 0 W/m² 13,1 °C 18,8 °C 13,9 km/h (3 Bft)
14.10.2023 02:00 21,6 °C 20,1 °C 65 % 68 % 1002,6 hPa 0,0 l/m² 20,0 km/h (4 Bft) SW 0,00 h 0 W/m² 14,0 °C 16,4 °C 27,1 km/h (5 Bft)
14.10.2023 03:00 21,6 °C 20,2 °C 65 % 68 % 1001,4 hPa 0,0 l/m² 14,2 km/h (3 Bft) SW 0,00 h 0 W/m² 14,1 °C 17,8 °C 20,6 km/h (4 Bft)
14.10.2023 04:00 21,6 °C 19,0 °C 65 % 71 % 1000,3 hPa 0,0 l/m² 10,7 km/h (2 Bft) S 0,00 h 0 W/m² 13,6 °C 17,3 °C 15,2 km/h (3 Bft)
14.10.2023 05:00 21,6 °C 19,7 °C 65 % 68 % 1000,1 hPa 0,0 l/m² 15,9 km/h (3 Bft) S-SW 0,00 h 0 W/m² 13,7 °C 16,7 °C 21,4 km/h (4 Bft)
14.10.2023 06:00 21,5 °C 20,9 °C 65 % 63 % 1000,3 hPa 0,0 l/m² 27,5 km/h (5 Bft) SW 0,00 h 0 W/m² 13,5 °C 16,3 °C 37,3 km/h (5 Bft)
14.10.2023 07:00 21,5 °C 17,0 °C 65 % 80 % 1002,3 hPa 1,6 l/m² 22,3 km/h (4 Bft) W-SW 0,00 h 0 W/m² 13,6 °C 12,2 °C 31,4 km/h (5 Bft)
14.10.2023 08:00 21,4 °C 13,4 °C 65 % 90 % 1004,3 hPa 0,8 l/m² 9,5 km/h (2 Bft) W-NW 0,05 h 29 W/m² 11,8 °C 11,6 °C 17,7 km/h (3 Bft)
14.10.2023 09:00 21,4 °C 13,1 °C 65 % 89 % 1006,2 hPa 0,2 l/m² 11,0 km/h (2 Bft) W-NW 0,33 h 49 W/m² 11,4 °C 10,6 °C 19,6 km/h (3 Bft)
14.10.2023 10:00 21,4 °C 13,5 °C 64 % 79 % 1007,9 hPa 0,0 l/m² 14,9 km/h (3 Bft) W 1,00 h 251 W/m² 9,9 °C 9,6 °C 22,9 km/h (4 Bft)
14.10.2023 11:00 21,4 °C 14,9 °C 64 % 69 % 1008,9 hPa 0,0 l/m² 17,5 km/h (3 Bft) W 1,00 h 478 W/m² 9,1 °C 10,4 °C 25,2 km/h (4 Bft)
14.10.2023 12:00 21,4 °C 15,4 °C 64 % 61 % 1009,5 hPa 0,0 l/m² 16,0 km/h (3 Bft) W 1,00 h 436 W/m² 8,0 °C 11,5 °C 24,2 km/h (4 Bft)
14.10.2023 13:00 21,5 °C 16,0 °C 64 % 60 % 1009,9 hPa 0,0 l/m² 15,5 km/h (3 Bft) W-SW 1,00 h 447 W/m² 8,2 °C 12,3 °C 22,3 km/h (4 Bft)
14.10.2023 14:00 21,6 °C 15,8 °C 64 % 62 % 1010,0 hPa 0,0 l/m² 12,5 km/h (2 Bft) W 1,00 h 306 W/m² 8,4 °C 13,2 °C 17,5 km/h (3 Bft)
14.10.2023 15:00 21,6 °C 14,8 °C 63 % 65 % 1010,3 hPa 0,0 l/m² 8,0 km/h (2 Bft) W 0,95 h 134 W/m² 8,2 °C 13,7 °C 13,5 km/h (3 Bft)
14.10.2023 16:00 21,6 °C 14,7 °C 63 % 66 % 1010,5 hPa 0,0 l/m² 5,0 km/h (1 Bft) W 1,00 h 153 W/m² 8,4 °C 14,4 °C 9,7 km/h (2 Bft)
14.10.2023 17:00 21,6 °C 13,6 °C 63 % 70 % 1011,0 hPa 0,0 l/m² 8,9 km/h (2 Bft) W-SW 0,62 h 65 W/m² 8,2 °C 11,6 °C 12,3 km/h (2 Bft)
14.10.2023 18:00 21,5 °C 11,9 °C 63 % 73 % 1011,5 hPa 0,0 l/m² 9,6 km/h (2 Bft) W-SW 0,00 h 9 W/m² 7,2 °C 10,0 °C 13,4 km/h (3 Bft)
14.10.2023 19:00 21,4 °C 11,5 °C 63 % 74 % 1012,6 hPa 0,0 l/m² 8,7 km/h (2 Bft) W-SW 0,00 h 0 W/m² 7,1 °C 10,0 °C 14,4 km/h (3 Bft)
14.10.2023 20:00 21,4 °C 10,8 °C 63 % 76 % 1013,6 hPa 0,0 l/m² 8,0 km/h (2 Bft) W 0,00 h 0 W/m² 6,7 °C 9,1 °C 14,1 km/h (3 Bft)
14.10.2023 21:00 21,4 °C 9,1 °C 63 % 84 % 1014,1 hPa 0,0 l/m² 3,2 km/h (1 Bft) SW 0,00 h 0 W/m² 6,5 °C 8,8 °C 4,6 km/h (1 Bft)
14.10.2023 22:00 21,3 °C 9,9 °C 63 % 82 % 1014,7 hPa 0,0 l/m² 9,0 km/h (2 Bft) W-SW 0,00 h 0 W/m² 6,9 °C 8,1 °C 12,8 km/h (3 Bft)
14.10.2023 23:00 21,3 °C 9,5 °C 63 % 83 % 1014,8 hPa 0,0 l/m² 8,6 km/h (2 Bft) W-SW 0,00 h 0 W/m² 6,7 °C 7,9 °C 13,0 km/h (3 Bft)
15.10.2023 00:00 21,2 °C 9,0 °C 63 % 83 % 1014,9 hPa 0,0 l/m² 13,6 km/h (3 Bft) W-SW 0,00 h 0 W/m² 6,2 °C 4,6 °C 18,4 km/h (3 Bft)
15.10.2023 01:00 21,2 °C 8,2 °C 63 % 84 % 1015,2 hPa 0,0 l/m² 12,0 km/h (2 Bft) W-SW 0,00 h 0 W/m² 5,6 °C 4,5 °C 16,7 km/h (3 Bft)
15.10.2023 02:00 21,2 °C 7,7 °C 63 % 85 % 1015,2 hPa 0,0 l/m² 11,7 km/h (2 Bft) SW 0,00 h 0 W/m² 5,3 °C 4,1 °C 15,8 km/h (3 Bft)
15.10.2023 03:00 21,2 °C 7,2 °C 62 % 86 % 1015,2 hPa 0,0 l/m² 12,5 km/h (2 Bft) SW 0,00 h 0 W/m² 5,1 °C 3,1 °C 18,0 km/h (3 Bft)
15.10.2023 04:00 21,2 °C 6,9 °C 62 % 86 % 1015,2 hPa 0,0 l/m² 12,0 km/h (2 Bft) SW 0,00 h 0 W/m² 4,7 °C 3,0 °C 17,5 km/h (3 Bft)
15.10.2023 05:00 21,2 °C 5,9 °C 62 % 88 % 1015,3 hPa 0,0 l/m² 11,6 km/h (2 Bft) S-SW 0,00 h 0 W/m² 4,0 °C 2,1 °C 15,4 km/h (3 Bft)
15.10.2023 06:00 21,2 °C 5,4 °C 62 % 89 % 1015,2 hPa 0,0 l/m² 11,7 km/h (2 Bft) S-SW 0,00 h 0 W/m² 3,7 °C 1,5 °C 15,7 km/h (3 Bft)
15.10.2023 07:00 21,2 °C 5,6 °C 62 % 89 % 1015,4 hPa 0,0 l/m² 7,5 km/h (2 Bft) W-SW 0,00 h 14 W/m² 3,9 °C 4,3 °C 11,5 km/h (2 Bft)
15.10.2023 08:00 21,2 °C 6,8 °C 62 % 86 % 1015,5 hPa 0,0 l/m² 12,6 km/h (2 Bft) SW 0,03 h 33 W/m² 4,7 °C 2,6 °C 17,8 km/h (3 Bft)
15.10.2023 09:00 21,2 °C 7,4 °C 61 % 86 % 1016,0 hPa 0,0 l/m² 13,8 km/h (3 Bft) SW 1,00 h 102 W/m² 5,2 °C 2,7 °C 19,6 km/h (3 Bft)
15.10.2023 10:00 21,1 °C 8,5 °C 61 % 82 % 1016,3 hPa 0,0 l/m² 19,6 km/h (3 Bft) SW 1,02 h 190 W/m² 5,7 °C 1,6 °C 27,1 km/h (5 Bft)
15.10.2023 11:00 21,1 °C 9,4 °C 61 % 79 % 1016,6 hPa 0,0 l/m² 19,6 km/h (3 Bft) W-SW 1,00 h 258 W/m² 5,9 °C 2,7 °C 26,1 km/h (4 Bft)
15.10.2023 12:00 21,1 °C 9,7 °C 61 % 77 % 1016,7 hPa 0,0 l/m² 18,3 km/h (3 Bft) W-SW 1,00 h 214 W/m² 5,8 °C 3,5 °C 23,8 km/h (4 Bft)
15.10.2023 13:00 21,1 °C 8,4 °C 61 % 82 % 1016,8 hPa 3,4 l/m² 9,6 km/h (2 Bft) W 0,78 h 135 W/m² 5,5 °C 6,1 °C 15,6 km/h (3 Bft)
15.10.2023 14:00 21,0 °C 9,6 °C 60 % 79 % 1016,8 hPa 0,0 l/m² 9,9 km/h (2 Bft) W 1,00 h 208 W/m² 6,1 °C 7,3 °C 15,4 km/h (3 Bft)
15.10.2023 15:00 21,0 °C 10,2 °C 61 % 74 % 1017,0 hPa 0,0 l/m² 14,0 km/h (3 Bft) W-SW 1,00 h 208 W/m² 5,8 °C 5,9 °C 20,1 km/h (4 Bft)
15.10.2023 16:00 21,0 °C 9,0 °C 61 % 79 % 1017,7 hPa 0,0 l/m² 11,5 km/h (2 Bft) W 0,75 h 106 W/m² 5,6 °C 5,9 °C 18,7 km/h (3 Bft)
15.10.2023 17:00 21,0 °C 8,8 °C 61 % 81 % 1018,4 hPa 0,0 l/m² 7,5 km/h (2 Bft) W-SW 0,58 h 62 W/m² 5,7 °C 7,7 °C 12,1 km/h (2 Bft)
15.10.2023 18:00 20,9 °C 7,0 °C 61 % 85 % 1018,9 hPa 0,2 l/m² 3,7 km/h (1 Bft) W-SW 0,00 h 9 W/m² 4,7 °C 7,0 °C 5,5 km/h (2 Bft)
15.10.2023 19:00 20,9 °C 6,1 °C 61 % 86 % 1019,7 hPa 0,0 l/m² 7,0 km/h (2 Bft) W-SW 0,00 h 0 W/m² 3,9 °C 5,2 °C 10,1 km/h (2 Bft)
15.10.2023 20:00 21,0 °C 5,7 °C 61 % 86 % 1020,2 hPa 0,0 l/m² 7,1 km/h (2 Bft) W-SW 0,00 h 0 W/m² 3,6 °C 5,0 °C 10,5 km/h (2 Bft)
15.10.2023 21:00 21,0 °C 5,3 °C 60 % 87 % 1020,8 hPa 0,0 l/m² 6,2 km/h (2 Bft) W-SW 0,00 h 0 W/m² 3,3 °C 4,9 °C 9,4 km/h (2 Bft)
15.10.2023 22:00 20,9 °C 4,8 °C 61 % 87 % 1021,3 hPa 0,0 l/m² 4,3 km/h (1 Bft) W-SW 0,00 h 0 W/m² 2,8 °C 4,8 °C 6,6 km/h (2 Bft)
15.10.2023 23:00 20,9 °C 4,8 °C 60 % 88 % 1021,7 hPa 0,0 l/m² 6,1 km/h (2 Bft) W-SW 0,00 h 0 W/m² 3,0 °C 4,3 °C 10,3 km/h (2 Bft)
Min-Datum _ 15.10.23 15.10.23 11.10.23 11.10.23 14.10.23 - 14.10.23 - - - 15.10.23 15.10.23 14.10.23
_ Min-Zeit 23:01 22:44 17:37 15:22 05:38 - 21:01 - - - 22:44 06:13 21:01
Minimum _ 20,9 °C 4,4 °C 53 % 53 % 999,9 hPa - 0,0 km/h (0 Bft) - - - 2,4 °C -0,6 °C 0,0 km/h (0 Bft)
Max-Datum _ 09.10.23 11.10.23 14.10.23 09.10.23 09.10.23 09.10.23 14.10.23 - 15.10.23 10.10.23 13.10.23 13.10.23 14.10.23
_ Max-Zeit 00:01 13:43 00:00 18:02 00:02 13:03 06:58 - 12:22 13:25 15:03 15:04 06:58
Maximum _ 23,8 °C 23,6 °C 66 % 96 % 1023,6 hPa 4,0 l/m² 41,5 km/h
SW (6 Bft)
- 0,05 h 712 W/m² 18,8 °C 23,4 °C 54,7 km/h
SW (7 Bft)
Durchschnitt _ 22,1 °C 15,2 °C 62 % 82 % 1013,9 hPa #18,6 l/m² 8,2 km/h (2 Bft) SW #50:06 h 67 W/m² 12,1 °C 13,9 °C 11,8 km/h (2 Bft)
© 2009 Mathias Hoßbach